Погода в Рыбинске

Погода в Рыбинске : погода сейчас, прогноз погоды и архив. Всё, что Вы хотите узнать о погоде в Рыбинске!

Хотите узнать прогноз погоды в Рыбинске? Тогда Вам сюда: Погода в Рыбинске

Поиск расширенной информации на нашем сайте:

Другие новости

Новости СМИ2

Главная страница сайта

Новости сайта

03.07.2017

Напоминаем, что на нашем специализированном сайте Метеоцентр.Азия вы можете получить высокодетализированные автоматические прогнозы погоды по пунктам России, СНГ и мира в авиационном формате (включающие направление и скорость ветра, видимость, явления погоды, количество и форму облачности, нижнюю и верхнюю границу облачности).


Погода в Рыбинске - сегодня

Время (UTC), дата Ветер
(°,м/с) 
Видим.   Явления Облачность Т
(°С)
Тd
(°С)
f(%) Тe
(°С)
Pmin
(гПа)
dP
(гПа)
Po
(мм)
O2
(г/м3)
Тmin Tmax R s Состояние
почвы
18 17.04.18 120 (ЮВ) 12000 м    6/0 средняя 
[As trans]
+8.7 +4.1 73 +10  1014.2  -0.9  751  293           
21 17.04.18 120 (ЮВ) 11000 м    6/0 средняя 
[As trans]
+7.4 +4 79 +8  1013.2  -1.1  750  294           
00 18.04.18 140 (ЮВ) 10 км    10/0 средняя 
[As op]
+8.2 +3.3 71 +9  1011.5  -1.6  749  292           
03 18.04.18 110 (В) 8000 м  слаб. дождь  10/10 2000 м 
[Ns]
+5.6 +3.9 89 +6  1010.4  -1.1  748  295  +5.6    0.5    мокрая 
06 18.04.18 110 (В) 7000 м  слаб. дождь  10/10 300 м 
[Frnb|Ns]
+7.9 +6.8 93 +7  1009.2  -1.1  747  291           
09 18.04.18 110 (В) 8000 м  слаб. дождь  10/10 300 м 
[Frnb|Ns]
+8.7 +7.6 93 +8  1009.3  0.1  747  291           
18 18.04.18 тихо ()   8000 м  слаб. дождь  10/10 300 м 
[Frnb|Ns]
+6 +4.9 93 +6  1011  0.5  749  294           
21 18.04.18 090 (В) 10 км  {дождь}  10/10 300 м 
[Sc]
+6.6 +1.6 70 +8  1010.3  -0.7  748  294           
03 19.04.18 320 (СЗ) 12000 м    10/10 300 м 
[Sc]
+3.9 -0.7 72 +5  1009.5  -0.4  747  297  +3.3      мокрая 
06 19.04.18 300 (СЗ) 14000 м    8/8 300 м 
[Sc]
+6.7 -0.7 59 +7  1009.4  0.1  747  294           
09 19.04.18 330 (СЗ) 15000 м    6/0 верхняя 
[Ci fib]
+7 +0.2 62 +6  1009.2  747  294           
12 19.04.18 320 (СЗ) 20000 м    4/0 верхняя 
[Ci fib]
+11.2 -0.9 43 +11  1009.1  747  289           
18 19.04.18 350 (С) 13000 м    6/0 верхняя 
[Ci fib]
+8.7 -2.3 46 +8  1011.8  1.9  749  293           
21 19.04.18 320 (СЗ) 12000 м    ясно 
+4.9 -1.9 61 +5  1013.4  1.3  750  297           
00 20.04.18 300 (СЗ) 12000 м    ясно 
+2.4 -1.8 74 +3  1014  0.5  751  300           
03 20.04.18 320 (СЗ) 15000 м    6/6 2000 м средняя 
[Ac trans]
+1.6 -0.8 84 +2  1015.1  1.2  752  301  +0.5        мокрая 
06 20.04.18 320 (СЗ) 15000 м    ясно 
+6.1 -1.3 59 +6  1016  1.1  752  297           
09 20.04.18 330 (СЗ) 16000 м    3/3 600 м 
[Cu med, cong]
+6.1 -1 60 +5  1016.6  0.5  753  297           
12 20.04.18 330 (СЗ) 18000 м    4/0 верхняя 
[Ci fib]
+7.7 -3.8 44 +8  1015.8  -0.7  752  295           
18 20.04.18 тихо ()   12000 м    10/10 2000 м 
[Ns]
+4 -2.3 63 +4  1012.5  -2  750  298           
21 20.04.18 160 (Ю) 8000 м  слаб. дождь  10/10 300 м 
[Frnb|Ns]
+3.4 -1 73 +4  1009.9  -2.6  748  298           
03 21.04.18 160 (Ю) 8000 м  слаб. дождь  10/10 300 м 
[Frnb|Ns]
+3.3 +2.4 94 +3  1000.3  -5.1  741  294  +2.5      мокрая 
06 21.04.18 170 (Ю) 8000 м  дождь  10/10 300 м 
[Frnb|Ns]
+4.6 +3.6 93 +4  995.8  -4.5  737  292           
09 21.04.18 140 (ЮВ) 8000 м  дождь  10/10 300 м 
[Frnb|Ns]
+7 +6.2 95 +7  989.8  -5.7  733  287           
03 22.04.18 340 (С) 6-10{13}  10 км  {ливн. осадки}  10/10 300 м 
[Sc]
-0.6 -2.7 86 -4  995.7  2.8  737  298  -0.6       
Время (UTC), дата Ветер
(°,м/с) 
Видим.   Явления Облачность Т
(°С)
Тd
(°С)
f(%) Тe
(°С)
Pmin
(гПа)
dP
(гПа)
Po
(мм)
O2
(г/м3)
Тmin Tmax R s Состояние
почвы

Для получения пояснительной информации подведите курсор к названию столбца.

ПОГОДА в Рыбинске - архив

Всё, что Вы хотите узнать о погоде в Рыбинске - удобно и подробно!

Выберите нужную дату (начиная с 1 января 2015* года) и нажмите кнопку "Найти".
Будут отображены архивные сводки погоды по пункту Рыбинск, начиная с указанной даты.


Отображать данные в формате CSV (для использования в таблицах Excel)


Внимание! Наш архив погоды предназначен исключительно для личного некоммерческого использования в познавательных целях. Если Вам необходимы официальные справки о состоянии погоды (для производственных, юридических, коммерческих и т.п. целей), обращайтесь в органы Росгидромета.

*Примечание: данная дата относится к архиву по метеостанциям СССР (Россия, СНГ, Балтия).
Архив по метеостанциям Зарубежной Европы и Азии (кроме Китая) хранится 10 дней, по другим регионам земного шара (Китай, Африка, Америка, Австралия, Океания) - 1 день.

Рыбинск - район местоположения метеостанции


Название, широта, долгота, высота метеостанции:
Рыбинск 58.1°ш. 38.7°д. 105 м над ур. моря [Российская Федерация]

Дополнительная информация

В oтличие oт бoльшинства пoгoдных сайтoв мы публикуем пoдрoбную метеoинфoрмацию в детальнoм прoфессиoнальнoм фoрмате.

Характеристики температуры и влажнoсти вoздуха измеряются на высoте 2 м в тени вдали oт зданий и деревьев.
Скoрoсть ветра измеряется на высoте 10 м (на урoвне рoста челoвека скoрoсть ветра ниже в 1.5-2 раза). Если метеoстанция нахoдится в гoрoде или в лесу, тo скoрoсть ветра занижена на 2-4 м/с пo сравнению с oткрытым местoм. Скoрoсть ветра над акватoриями крупных рек и oзёр, а также на вершинах хoлмoв на 2-5 м/с выше, чем в oбычных услoвиях.
Атмoсфернoе давление в разных тoчках местнoсти мoжет значительнo oтличаться oт давления на метеoстанции, в зависимoсти oт услoвий рельефа (при пoдъёме на 10 м давление пoнижается примернo на 1 мм рт.ст.).